Location: Arapaho Elementary School
(32.9607°N, 96.7625°W)
Time: 09:46:23
(UTC+00:00)

Cosmos 1538 Rocket - Visible Passes

Search period start: 26 June 2022 00:00
Search period end: 06 July 2022 00:00
Orbit: 752 x 791 km, 74.0° (Epoch: 25 June)

Date Brightness Start Highest point End Pass type
(mag) Time Alt. Az. Time Alt. Az. Time Alt. Az.
29 Jun 6.6 10:44:38 10° SE 10:48:06 18° E 10:51:34 10° NE visible
02 Jul 5.6 10:37:23 10° SSE 10:42:05 34° E 10:46:46 10° NE visible
03 Jul 6.4 10:02:41 10° SE 10:06:20 19° E 10:09:58 10° NE visible
04 Jul 6.9 09:30:20 10° E 09:30:40 10° E 09:30:59 10° E visible
05 Jul 4.4 10:30:59 10° S 10:36:11 67° ESE 10:41:21 10° NNE visible
